TimeCDT,TemperatureF,Dew PointF,Humidity,Sea Level PressureIn,VisibilityMPH,Wind Direction,Wind SpeedMPH,Gust SpeedMPH,PrecipitationIn,Events,Conditions,WindDirDegrees,DateUTC
12:23 AM,71.6,68.0,88,29.95,8.0,ESE,3.5,-,N/A,,Overcast,110,2013-10-01 05:23:00
12:53 AM,72.0,68.0,87,29.94,8.0,ESE,3.5,-,N/A,,Overcast,120,2013-10-01 05:53:00
1:53 AM,72.0,66.9,84,29.95,10.0,SSE,5.8,-,N/A,,Overcast,150,2013-10-01 06:53:00
2:53 AM,72.0,66.9,84,29.95,10.0,SSE,6.9,-,N/A,,Overcast,150,2013-10-01 07:53:00
3:53 AM,71.1,66.9,87,29.95,10.0,South,6.9,-,N/A,,Overcast,170,2013-10-01 08:53:00
4:53 AM,71.1,66.9,87,29.96,7.0,South,8.1,-,N/A,,Overcast,170,2013-10-01 09:53:00
5:53 AM,71.1,66.9,87,29.99,7.0,South,5.8,-,N/A,,Overcast,170,2013-10-01 10:53:00
6:53 AM,71.1,68.0,90,30.00,7.0,South,5.8,-,N/A,,Overcast,170,2013-10-01 11:53:00
7:26 AM,71.6,68.0,88,30.01,5.0,South,5.8,-,N/A,,Overcast,170,2013-10-01 12:26:00
7:53 AM,72.0,68.0,87,30.01,4.0,South,6.9,-,N/A,,Overcast,170,2013-10-01 12:53:00
8:53 AM,73.0,69.1,87,30.03,4.0,South,6.9,-,N/A,,Overcast,180,2013-10-01 13:53:00
9:34 AM,73.4,69.8,88,30.05,7.0,South,5.8,-,N/A,,Overcast,190,2013-10-01 14:34:00
9:53 AM,75.0,69.1,82,30.04,8.0,South,5.8,-,N/A,,Overcast,180,2013-10-01 14:53:00
10:53 AM,75.9,70.0,82,30.04,10.0,SSW,6.9,-,N/A,,Overcast,200,2013-10-01 15:53:00
11:32 AM,75.2,69.8,83,30.04,10.0,SSW,8.1,-,N/A,,Overcast,210,2013-10-01 16:32:00
11:50 AM,75.2,69.8,83,30.04,10.0,SW,10.4,-,N/A,,Overcast,220,2013-10-01 16:50:00
11:53 AM,75.9,70.0,82,30.04,10.0,SSW,8.1,-,N/A,,Overcast,210,2013-10-01 16:53:00
12:11 PM,77.0,69.8,78,30.05,10.0,SSW,5.8,-,N/A,,Overcast,210,2013-10-01 17:11:00
12:34 PM,78.8,69.8,74,30.04,10.0,SSW,8.1,-,N/A,,Overcast,210,2013-10-01 17:34:00
12:53 PM,80.1,70.0,71,30.03,10.0,Variable,6.9,-,N/A,,Overcast,0,2013-10-01 17:53:00
1:49 PM,82.4,69.8,66,30.01,10.0,SSW,8.1,-,N/A,,Overcast,210,2013-10-01 18:49:00
1:53 PM,82.9,69.1,63,30.00,10.0,SSW,6.9,-,N/A,,Overcast,210,2013-10-01 18:53:00
2:53 PM,84.0,68.0,58,29.98,10.0,South,6.9,-,N/A,,Mostly Cloudy,190,2013-10-01 19:53:00
3:53 PM,84.9,69.1,59,29.97,10.0,South,10.4,-,N/A,,Mostly Cloudy,170,2013-10-01 20:53:00
4:53 PM,84.0,69.1,61,29.97,10.0,South,8.1,-,N/A,,Scattered Clouds,170,2013-10-01 21:53:00
5:53 PM,84.0,69.1,61,29.97,10.0,SSW,6.9,-,N/A,,Scattered Clouds,200,2013-10-01 22:53:00
6:53 PM,81.0,69.1,67,29.99,10.0,South,4.6,-,N/A,,Mostly Cloudy,190,2013-10-01 23:53:00
7:53 PM,79.0,69.1,72,30.00,10.0,South,4.6,-,N/A,,Partly Cloudy,170,2013-10-02 00:53:00
8:53 PM,75.0,68.0,79,30.01,10.0,SE,3.5,-,N/A,,Clear,140,2013-10-02 01:53:00
9:53 PM,73.0,68.0,84,30.02,10.0,Calm,Calm,-,N/A,,Clear,0,2013-10-02 02:53:00
10:53 PM,73.0,68.0,84,30.03,10.0,Calm,Calm,-,N/A,,Clear,0,2013-10-02 03:53:00
11:53 PM,71.1,68.0,90,30.03,10.0,Calm,Calm,-,N/A,,Partly Cloudy,0,2013-10-02 04:53:00